,,,PA_Meas_PMT16A,,PR_Meas_QMR101_102,,RH_Meas_QMH101,,SR_Meas_QMS101,,TA_Meas_QMH101,,GenWind,,GenWind,
date,time,status,PA,status,PR,status,RH,status,SR,status,TA,status,DirAvg,status,SpdAvg,
2010-12-02, 00:00:04,VALID,1006.99,VALID,0,VALID,103.062,VALID,0,VALID,24.8633,VALID,74,VALID,0.391406,
2010-12-02, 00:01:04,VALID,1006.99,VALID,0,VALID,103.123,VALID,0,VALID,24.8438,VALID,74,VALID,0.234375,
2010-12-02, 00:02:04,VALID,1007,VALID,0,VALID,103.169,VALID,0,VALID,24.8244,VALID,74,VALID,0.2,
2010-12-02, 00:03:04,VALID,1006.97,VALID,0,VALID,103.215,VALID,0,VALID,24.8049,VALID,69,VALID,0.430078,
2010-12-02, 00:04:04,VALID,1006.95,VALID,0,VALID,103.26,VALID,0,VALID,24.8049,VALID,52,VALID,0.00195313,
2010-12-02, 00:05:04,VALID,1006.97,VALID,0,VALID,103.298,VALID,0,VALID,24.764,VALID,52,VALID,0.308203,
2010-12-02, 00:06:04,VALID,1006.96,VALID,0,VALID,103.352,VALID,0,VALID,24.7854,VALID,52,VALID,0.00703125,
2010-12-02, 00:07:04,VALID,1006.94,VALID,0,VALID,103.367,VALID,0,VALID,24.7464,VALID,52,VALID,0.248437,
2010-12-02, 00:08:04,VALID,1006.96,VALID,0,VALID,103.398,VALID,0,VALID,24.7464,VALID,52,VALID,0,
2010-12-02, 00:09:04,VALID,1006.93,VALID,0,VALID,103.443,VALID,0,VALID,24.7269,VALID,52,VALID,0,
2010-12-02, 00:10:04,VALID,1006.94,VALID,0,VALID,103.474,VALID,0,VALID,24.7074,VALID,52,VALID,0,
2010-12-02, 00:11:04,VALID,1006.95,VALID,0,VALID,103.474,VALID,0,VALID,24.7269,VALID,52,VALID,0,
2010-12-02, 00:12:04,VALID,1006.94,VALID,0,VALID,103.52,VALID,0,VALID,24.7269,VALID,52,VALID,0,
2010-12-02, 00:13:04,VALID,1006.92,VALID,0,VALID,103.535,VALID,0,VALID,24.7074,VALID,52,VALID,0,
2010-12-02, 00:14:04,VALID,1006.9,VALID,0,VALID,103.565,VALID,0,VALID,24.7269,VALID,52,VALID,0,
2010-12-02, 00:15:04,VALID,1006.89,VALID,0,VALID,103.573,VALID,0,VALID,24.7269,VALID,52,VALID,0,
2010-12-02, 00:16:04,VALID,1006.88,VALID,0,VALID,103.588,VALID,0,VALID,24.7269,VALID,52,VALID,0,
2010-12-02, 00:17:04,VALID,1006.86,VALID,0,VALID,103.626,VALID,0,VALID,24.7464,VALID,52,VALID,0,
2010-12-02, 00:18:04,VALID,1006.87,VALID,0,VALID,103.611,VALID,0,VALID,24.7483,VALID,52,VALID,0,
2010-12-02, 00:19:04,VALID,1006.83,VALID,0,VALID,103.634,VALID,0,VALID,24.7464,VALID,52,VALID,0,
2010-12-02, 00:20:04,VALID,1006.85,VALID,0,VALID,103.634,VALID,0,VALID,24.7464,VALID,52,VALID,0,
2010-12-02, 00:21:04,VALID,1006.86,VALID,0,VALID,103.649,VALID,0,VALID,24.725,VALID,52,VALID,0,
2010-12-02, 00:22:04,VALID,1006.89,VALID,0,VALID,103.664,VALID,0,VALID,24.7464,VALID,52,VALID,0,
2010-12-02, 00:23:04,VALID,1006.85,VALID,0,VALID,103.68,VALID,0,VALID,24.7269,VALID,52,VALID,0,
2010-12-02, 00:24:04,VALID,1006.89,VALID,0,VALID,103.68,VALID,0,VALID,24.7269,VALID,52,VALID,0,
2010-12-02, 00:25:04,VALID,1006.87,VALID,0,VALID,103.672,VALID,0,VALID,24.7464,VALID,52,VALID,0,
2010-12-02, 00:26:04,VALID,1006.85,VALID,0,VALID,103.68,VALID,0,VALID,24.7269,VALID,52,VALID,0,
2010-12-02, 00:27:04,VALID,1006.84,VALID,0,VALID,103.664,VALID,0,VALID,24.7269,VALID,52,VALID,0,
2010-12-02, 00:28:04,VALID,1006.8,VALID,0,VALID,103.68,VALID,0,VALID,24.7464,VALID,52,VALID,0,
2010-12-02, 00:29:04,VALID,1006.78,VALID,0,VALID,103.68,VALID,0,VALID,24.7055,VALID,52,VALID,0,
2010-12-02, 00:30:04,VALID,1006.76,VALID,0,VALID,103.687,VALID,0,VALID,24.7074,VALID,52,VALID,0,
2010-12-02, 00:31:04,VALID,1006.75,VALID,0,VALID,103.68,VALID,0,VALID,24.7269,VALID,52,VALID,0,
2010-12-02, 00:32:04,VALID,1006.71,VALID,0,VALID,103.687,VALID,0,VALID,24.7464,VALID,52,VALID,0,
2010-12-02, 00:33:04,VALID,1006.69,VALID,0,VALID,103.703,VALID,0,VALID,24.7269,VALID,52,VALID,0,
2010-12-02, 00:34:04,VALID,1006.68,VALID,0,VALID,103.687,VALID,0,VALID,24.7269,VALID,52,VALID,0,
2010-12-02, 00:35:04,VALID,1006.62,VALID,0,VALID,103.703,VALID,0,VALID,24.7464,VALID,52,VALID,0,
2010-12-02, 00:36:04,VALID,1006.64,VALID,0,VALID,103.695,VALID,0,VALID,24.7464,VALID,52,VALID,0.226172,
2010-12-02, 00:37:04,VALID,1006.62,VALID,0,VALID,103.703,VALID,0,VALID,24.7659,VALID,52,VALID,0.418359,
2010-12-02, 00:38:04,VALID,1006.6,VALID,0,VALID,103.71,VALID,0,VALID,24.7659,VALID,52,VALID,0.273438,
2010-12-02, 00:39:04,VALID,1006.56,VALID,0,VALID,103.703,VALID,0,VALID,24.7464,VALID,52,VALID,0.293359,
2010-12-02, 00:40:04,VALID,1006.56,VALID,0,VALID,103.71,VALID,0,VALID,24.7464,VALID,52,VALID,0.205078,
2010-12-02, 00:41:04,VALID,1006.49,VALID,0,VALID,103.695,VALID,0,VALID,24.7659,VALID,52,VALID,0.231641,
2010-12-02, 00:42:04,VALID,1006.5,VALID,0,VALID,103.68,VALID,0,VALID,24.7659,VALID,52,VALID,0.000390625,
2010-12-02, 00:43:04,VALID,1006.49,VALID,0,VALID,103.726,VALID,0,VALID,24.7464,VALID,52,VALID,0,
2010-12-02, 00:44:04,VALID,1006.48,VALID,0,VALID,103.718,VALID,0,VALID,24.7464,VALID,52,VALID,0,
2010-12-02, 00:45:04,VALID,1006.48,VALID,0,VALID,103.68,VALID,0,VALID,24.7464,VALID,52,VALID,0,
2010-12-02, 00:46:04,VALID,1006.46,VALID,0,VALID,103.71,VALID,0,VALID,24.7659,VALID,52,VALID,0,
2010-12-02, 00:47:04,VALID,1006.43,VALID,0,VALID,103.703,VALID,0,VALID,24.7464,VALID,52,VALID,0,
2010-12-02, 00:48:04,VALID,1006.45,VALID,0,VALID,103.703,VALID,0,VALID,24.7464,VALID,52,VALID,0,
2010-12-02, 00:49:04,VALID,1006.41,VALID,0,VALID,103.703,VALID,0,VALID,24.7464,VALID,52,VALID,0,
2010-12-02, 00:50:04,VALID,1006.43,VALID,0,VALID,103.687,VALID,0,VALID,24.7659,VALID,52,VALID,0,
2010-12-02, 00:51:04,VALID,1006.41,VALID,0,VALID,103.687,VALID,0,VALID,24.7464,VALID,52,VALID,0.370313,
2010-12-02, 00:52:04,VALID,1006.46,VALID,0,VALID,103.664,VALID,0,VALID,24.7659,VALID,52,VALID,0.439453,
2010-12-02, 00:53:04,VALID,1006.46,VALID,0,VALID,103.68,VALID,0,VALID,24.7659,VALID,52,VALID,0.498828,
2010-12-02, 00:54:04,VALID,1006.43,VALID,0,VALID,103.672,VALID,0,VALID,24.7659,VALID,79,VALID,0.653516,
2010-12-02, 00:55:04,VALID,1006.46,VALID,0,VALID,103.703,VALID,0,VALID,24.7659,VALID,107,VALID,0.59375,
2010-12-02, 00:56:04,VALID,1006.48,VALID,0,VALID,103.672,VALID,0,VALID,24.7854,VALID,108,VALID,0.177734,
2010-12-02, 00:57:04,VALID,1006.48,VALID,0,VALID,103.687,VALID,0,VALID,24.7659,VALID,108,VALID,0.697266,
2010-12-02, 00:58:04,VALID,1006.48,VALID,0,VALID,103.68,VALID,0,VALID,24.7659,VALID,108,VALID,0.623047,
2010-12-02, 00:59:04,VALID,1006.48,VALID,0,VALID,103.68,VALID,0,VALID,24.7464,VALID,119,VALID,0.704687,
2010-12-02, 01:00:04,VALID,1006.46,VALID,0,VALID,103.664,VALID,0,VALID,24.7464,VALID,129,VALID,0.896875,
2010-12-02, 01:01:04,VALID,1006.44,VALID,0,VALID,103.642,VALID,0,VALID,24.7269,VALID,130,VALID,0.674219,
2010-12-02, 01:02:04,VALID,1006.43,VALID,0,VALID,103.664,VALID,0,VALID,24.7269,VALID,130,VALID,0.771094,
2010-12-02, 01:03:04,VALID,1006.4,VALID,0,VALID,103.626,VALID,0,VALID,24.7269,VALID,130,VALID,0.901563,
2010-12-02, 01:04:04,VALID,1006.39,VALID,0,VALID,103.626,VALID,0,VALID,24.7269,VALID,130,VALID,0.539063,
2010-12-02, 01:05:04,VALID,1006.36,VALID,0,VALID,103.642,VALID,0,VALID,24.7074,VALID,130,VALID,0.650781,
2010-12-02, 01:06:04,VALID,1006.36,VALID,0,VALID,103.611,VALID,0,VALID,24.7074,VALID,130,VALID,0.415625,
2010-12-02, 01:07:04,VALID,1006.33,VALID,0,VALID,103.626,VALID,0,VALID,24.7074,VALID,93,VALID,0.749219,
2010-12-02, 01:08:04,VALID,1006.32,VALID,0,VALID,103.619,VALID,0,VALID,24.6879,VALID,88,VALID,0.75,
2010-12-02, 01:09:04,VALID,1006.3,VALID,0,VALID,103.619,VALID,0,VALID,24.7074,VALID,88,VALID,0.470313,
2010-12-02, 01:10:04,VALID,1006.27,VALID,0,VALID,103.634,VALID,0,VALID,24.7074,VALID,88,VALID,0.393359,
2010-12-02, 01:11:04,VALID,1006.26,VALID,0,VALID,103.642,VALID,0,VALID,24.7074,VALID,88,VALID,0.314844,
2010-12-02, 01:12:04,VALID,1006.27,VALID,0,VALID,103.657,VALID,0,VALID,24.7074,VALID,91,VALID,0.669922,
2010-12-02, 01:13:04,VALID,1006.24,VALID,0,VALID,103.649,VALID,0,VALID,24.7074,VALID,94,VALID,0.45,
2010-12-02, 01:14:04,VALID,1006.23,VALID,0,VALID,103.649,VALID,0,VALID,24.7074,VALID,94,VALID,0.394922,
2010-12-02, 01:15:04,VALID,1006.21,VALID,0,VALID,103.649,VALID,0,VALID,24.6879,VALID,94,VALID,0.408594,
2010-12-02, 01:16:04,VALID,1006.24,VALID,0,VALID,103.657,VALID,0,VALID,24.686,VALID,94,VALID,0.176172,
2010-12-02, 01:17:04,VALID,1006.24,VALID,0,VALID,103.657,VALID,0,VALID,24.7074,VALID,94,VALID,0.139453,
2010-12-02, 01:18:04,VALID,1006.25,VALID,0,VALID,103.672,VALID,0,VALID,24.6879,VALID,94,VALID,0,
2010-12-02, 01:19:04,VALID,1006.25,VALID,0,VALID,103.657,VALID,0,VALID,24.6879,VALID,94,VALID,0,
2010-12-02, 01:20:04,VALID,1006.26,VALID,0,VALID,103.657,VALID,0,VALID,24.7074,VALID,94,VALID,0.3375,
2010-12-02, 01:21:04,VALID,1006.27,VALID,0,VALID,103.657,VALID,0,VALID,24.6879,VALID,94,VALID,0.453906,
2010-12-02, 01:22:04,VALID,1006.25,VALID,0,VALID,103.664,VALID,0,VALID,24.6684,VALID,93,VALID,0.283984,
2010-12-02, 01:23:04,VALID,1006.26,VALID,0,VALID,103.672,VALID,0,VALID,24.6684,VALID,93,VALID,0.178906,
2010-12-02, 01:24:04,VALID,1006.27,VALID,0,VALID,103.664,VALID,0,VALID,24.6703,VALID,93,VALID,0.293359,
2010-12-02, 01:25:04,VALID,1006.27,VALID,0,VALID,103.672,VALID,0,VALID,24.6489,VALID,93,VALID,0.291797,
2010-12-02, 01:26:04,VALID,1006.26,VALID,0,VALID,103.657,VALID,0,VALID,24.6294,VALID,93,VALID,0.353516,
2010-12-02, 01:27:04,VALID,1006.22,VALID,0,VALID,103.672,VALID,0,VALID,24.6294,VALID,93,VALID,0.505859,
2010-12-02, 01:28:04,VALID,1006.21,VALID,0,VALID,103.68,VALID,0,VALID,24.6294,VALID,93,VALID,0.737891,
2010-12-02, 01:29:04,VALID,1006.21,VALID,0,VALID,103.664,VALID,0,VALID,24.6099,VALID,94,VALID,0.691797,
2010-12-02, 01:30:04,VALID,1006.17,VALID,0,VALID,103.672,VALID,0,VALID,24.6099,VALID,86,VALID,0.405078,
2010-12-02, 01:31:04,VALID,1006.21,VALID,0,VALID,103.657,VALID,0,VALID,24.6099,VALID,86,VALID,0.549219,
2010-12-02, 01:32:04,VALID,1006.21,VALID,0,VALID,103.68,VALID,0,VALID,24.5905,VALID,86,VALID,0.68125,
2010-12-02, 01:33:04,VALID,1006.18,VALID,0,VALID,103.657,VALID,0,VALID,24.5905,VALID,86,VALID,0.608984,
2010-12-02, 01:34:04,VALID,1006.21,VALID,0,VALID,103.657,VALID,0.105969,VALID,24.6099,VALID,86,VALID,0.432813,
2010-12-02, 01:35:04,VALID,1006.21,VALID,0,VALID,103.664,VALID,0,VALID,24.6099,VALID,86,VALID,0.473047,
2010-12-02, 01:36:04,VALID,1006.2,VALID,0,VALID,103.642,VALID,0,VALID,24.6294,VALID,86,VALID,0.0851562,
2010-12-02, 01:37:04,VALID,1006.2,VALID,0,VALID,103.672,VALID,0,VALID,24.6294,VALID,86,VALID,0,
2010-12-02, 01:38:04,VALID,1006.2,VALID,0,VALID,103.664,VALID,0,VALID,24.6489,VALID,86,VALID,0,
2010-12-02, 01:39:04,VALID,1006.2,VALID,0,VALID,103.672,VALID,0,VALID,24.6294,VALID,86,VALID,0.0371094,
2010-12-02, 01:40:04,VALID,1006.2,VALID,0,VALID,103.68,VALID,0,VALID,24.6294,VALID,86,VALID,0.00351562,
2010-12-02, 01:41:04,VALID,1006.16,VALID,0,VALID,103.672,VALID,0,VALID,24.6489,VALID,86,VALID,0,
2010-12-02, 01:42:04,VALID,1006.16,VALID,0,VALID,103.687,VALID,0,VALID,24.6508,VALID,86,VALID,0,
2010-12-02, 01:43:04,VALID,1006.16,VALID,0,VALID,103.649,VALID,0,VALID,24.6099,VALID,86,VALID,0,
2010-12-02, 01:44:04,VALID,1006.16,VALID,0,VALID,103.664,VALID,0,VALID,24.6099,VALID,86,VALID,0.202734,
2010-12-02, 01:45:04,VALID,1006.14,VALID,0,VALID,103.672,VALID,0,VALID,24.6118,VALID,86,VALID,0.0273438,
2010-12-02, 01:46:04,VALID,1006.14,VALID,0,VALID,103.672,VALID,0,VALID,24.5905,VALID,86,VALID,0.0375,
2010-12-02, 01:47:04,VALID,1006.12,VALID,0,VALID,103.664,VALID,0,VALID,24.6118,VALID,86,VALID,0,
2010-12-02, 01:48:04,VALID,1006.09,VALID,0,VALID,103.672,VALID,0,VALID,24.5905,VALID,86,VALID,0,
2010-12-02, 01:49:04,VALID,1006.12,VALID,0,VALID,103.672,VALID,0,VALID,24.5923,VALID,86,VALID,0,
2010-12-02, 01:50:04,VALID,1006.11,VALID,0,VALID,103.664,VALID,0,VALID,24.5905,VALID,116,VALID,0.419922,
2010-12-02, 01:51:04,VALID,1006.09,VALID,0,VALID,103.68,VALID,0,VALID,24.5905,VALID,160,VALID,0.704297,
2010-12-02, 01:52:04,VALID,1006.14,VALID,0,VALID,103.672,VALID,0,VALID,24.5905,VALID,160,VALID,0.757422,
2010-12-02, 01:53:04,VALID,1006.11,VALID,0,VALID,103.68,VALID,0,VALID,24.571,VALID,160,VALID,0.594922,
2010-12-02, 01:54:04,VALID,1006.16,VALID,0,VALID,103.68,VALID,0,VALID,24.571,VALID,160,VALID,0.667578,
2010-12-02, 01:55:04,VALID,1006.17,VALID,0,VALID,103.703,VALID,0,VALID,24.5496,VALID,174,VALID,0.811719,
2010-12-02, 01:56:04,VALID,1006.16,VALID,0,VALID,103.703,VALID,0.105969,VALID,24.5515,VALID,174,VALID,0.867188,
2010-12-02, 01:57:04,VALID,1006.14,VALID,0,VALID,103.703,VALID,0,VALID,24.532,VALID,174,VALID,0.669531,
2010-12-02, 01:58:04,VALID,1006.11,VALID,0,VALID,103.71,VALID,0,VALID,24.532,VALID,174,VALID,0.490234,
2010-12-02, 01:59:04,VALID,1006.05,VALID,0,VALID,103.726,VALID,0,VALID,24.5106,VALID,174,VALID,0.0273438,
2010-12-02, 02:00:04,VALID,1006.02,VALID,0,VALID,103.71,VALID,0,VALID,24.532,VALID,174,VALID,0.15,
2010-12-02, 02:01:04,VALID,1005.99,VALID,0,VALID,103.741,VALID,0,VALID,24.5515,VALID,174,VALID,0.353906,
2010-12-02, 02:02:04,VALID,1005.99,VALID,0,VALID,103.741,VALID,0,VALID,24.532,VALID,169,VALID,0.449219,
2010-12-02, 02:03:04,VALID,1005.97,VALID,0,VALID,103.748,VALID,0,VALID,24.5515,VALID,99,VALID,0.358203,
2010-12-02, 02:04:04,VALID,1005.95,VALID,0,VALID,103.718,VALID,0.105969,VALID,24.5515,VALID,99,VALID,0.283594,
2010-12-02, 02:05:04,VALID,1005.98,VALID,0,VALID,103.756,VALID,0,VALID,24.571,VALID,99,VALID,0.326953,
2010-12-02, 02:06:04,VALID,1005.99,VALID,0,VALID,103.756,VALID,0,VALID,24.5905,VALID,99,VALID,0.366016,
2010-12-02, 02:07:04,VALID,1005.95,VALID,0,VALID,103.764,VALID,0,VALID,24.5905,VALID,99,VALID,0,
2010-12-02, 02:08:04,VALID,1005.94,VALID,0,VALID,103.733,VALID,0,VALID,24.5905,VALID,99,VALID,0,
2010-12-02, 02:09:04,VALID,1005.94,VALID,0,VALID,103.741,VALID,0,VALID,24.5905,VALID,99,VALID,0,
2010-12-02, 02:10:04,VALID,1005.93,VALID,0,VALID,103.748,VALID,0,VALID,24.5905,VALID,99,VALID,0.0632813,
2010-12-02, 02:11:04,VALID,1005.93,VALID,0,VALID,103.733,VALID,0,VALID,24.5905,VALID,99,VALID,0.303906,
2010-12-02, 02:12:04,VALID,1005.91,VALID,0,VALID,103.748,VALID,0,VALID,24.6099,VALID,99,VALID,0.204688,
2010-12-02, 02:13:04,VALID,1005.9,VALID,0,VALID,103.756,VALID,0,VALID,24.6099,VALID,99,VALID,0.226172,
2010-12-02, 02:14:04,VALID,1005.88,VALID,0,VALID,103.764,VALID,0,VALID,24.6099,VALID,99,VALID,0.355469,
2010-12-02, 02:15:04,VALID,1005.88,VALID,0,VALID,103.748,VALID,0,VALID,24.6294,VALID,99,VALID,0.251172,
2010-12-02, 02:16:04,VALID,1005.85,VALID,0,VALID,103.733,VALID,0,VALID,24.6081,VALID,159,VALID,0.549219,
2010-12-02, 02:17:04,VALID,1005.84,VALID,0,VALID,103.756,VALID,0,VALID,24.6099,VALID,159,VALID,0.351953,
2010-12-02, 02:18:04,VALID,1005.82,VALID,0,VALID,103.748,VALID,0,VALID,24.6294,VALID,159,VALID,0.396094,
2010-12-02, 02:19:04,VALID,1005.82,VALID,0,VALID,103.756,VALID,0,VALID,24.6099,VALID,159,VALID,0.394531,
2010-12-02, 02:20:04,VALID,1005.86,VALID,0,VALID,103.748,VALID,0,VALID,24.6099,VALID,159,VALID,0.509766,
2010-12-02, 02:21:04,VALID,1005.81,VALID,0,VALID,103.771,VALID,0,VALID,24.6294,VALID,159,VALID,0.440625,
2010-12-02, 02:22:04,VALID,1005.8,VALID,0,VALID,103.756,VALID,0,VALID,24.6099,VALID,159,VALID,0.164063,
2010-12-02, 02:23:04,VALID,1005.81,VALID,0,VALID,103.748,VALID,0,VALID,24.6099,VALID,159,VALID,0.402734,
2010-12-02, 02:24:04,VALID,1005.77,VALID,0,VALID,103.764,VALID,0,VALID,24.6099,VALID,159,VALID,0.155078,
2010-12-02, 02:25:04,VALID,1005.77,VALID,0,VALID,103.756,VALID,0,VALID,24.6099,VALID,159,VALID,0.279687,
2010-12-02, 02:26:04,VALID,1005.78,VALID,0,VALID,103.756,VALID,0.105969,VALID,24.6099,VALID,159,VALID,0.289063,
2010-12-02, 02:27:04,VALID,1005.73,VALID,0,VALID,103.764,VALID,0.105969,VALID,24.5886,VALID,159,VALID,0.461719,
2010-12-02, 02:28:04,VALID,1005.73,VALID,0,VALID,103.756,VALID,0,VALID,24.6099,VALID,159,VALID,0.35,
2010-12-02, 02:29:04,VALID,1005.72,VALID,0,VALID,103.771,VALID,0,VALID,24.5905,VALID,159,VALID,0.432813,
2010-12-02, 02:30:04,VALID,1005.7,VALID,0,VALID,103.756,VALID,0,VALID,24.5905,VALID,159,VALID,0.430469,
2010-12-02, 02:31:04,VALID,1005.7,VALID,0,VALID,103.771,VALID,0,VALID,24.5691,VALID,159,VALID,0.478125,
2010-12-02, 02:32:04,VALID,1005.67,VALID,0,VALID,103.779,VALID,0,VALID,24.571,VALID,159,VALID,0.366797,
2010-12-02, 02:33:04,VALID,1005.67,VALID,0,VALID,103.748,VALID,0,VALID,24.571,VALID,159,VALID,0.125781,
2010-12-02, 02:34:04,VALID,1005.65,VALID,0,VALID,103.779,VALID,0,VALID,24.571,VALID,159,VALID,0.233984,
2010-12-02, 02:35:04,VALID,1005.64,VALID,0,VALID,103.764,VALID,0.105969,VALID,24.571,VALID,159,VALID,0.0140625,
2010-12-02, 02:36:04,VALID,1005.62,VALID,0,VALID,103.771,VALID,0.105969,VALID,24.5496,VALID,159,VALID,0,
2010-12-02, 02:37:04,VALID,1005.58,VALID,0,VALID,103.764,VALID,0,VALID,24.5515,VALID,159,VALID,0,
2010-12-02, 02:38:04,VALID,1005.59,VALID,0,VALID,103.771,VALID,0,VALID,24.571,VALID,159,VALID,0,
2010-12-02, 02:39:04,VALID,1005.56,VALID,0,VALID,103.756,VALID,0,VALID,24.5496,VALID,159,VALID,0,
2010-12-02, 02:40:04,VALID,1005.55,VALID,0,VALID,103.771,VALID,0.105969,VALID,24.571,VALID,159,VALID,0.469141,
2010-12-02, 02:41:04,VALID,1005.55,VALID,0,VALID,103.756,VALID,0,VALID,24.5515,VALID,155,VALID,0.623438,
2010-12-02, 02:42:04,VALID,1005.54,VALID,0,VALID,103.764,VALID,0,VALID,24.5515,VALID,143,VALID,0.574609,
2010-12-02, 02:43:04,VALID,1005.52,VALID,0,VALID,103.771,VALID,0.105969,VALID,24.5496,VALID,143,VALID,0.516797,
2010-12-02, 02:44:04,VALID,1005.54,VALID,0,VALID,103.771,VALID,0,VALID,24.5515,VALID,143,VALID,0.740625,
2010-12-02, 02:45:04,VALID,1005.54,VALID,0,VALID,103.748,VALID,0,VALID,24.5515,VALID,143,VALID,0.544141,
2010-12-02, 02:46:04,VALID,1005.49,VALID,0,VALID,103.748,VALID,0,VALID,24.532,VALID,143,VALID,0.382813,
2010-12-02, 02:47:04,VALID,1005.48,VALID,0,VALID,103.718,VALID,0,VALID,24.5515,VALID,143,VALID,0.224219,
2010-12-02, 02:48:04,VALID,1005.47,VALID,0,VALID,103.733,VALID,0,VALID,24.5515,VALID,143,VALID,0.346094,
2010-12-02, 02:49:04,VALID,1005.46,VALID,0,VALID,103.718,VALID,0.105969,VALID,24.5106,VALID,143,VALID,0.264844,
2010-12-02, 02:50:04,VALID,1005.46,VALID,0,VALID,103.703,VALID,0,VALID,24.5106,VALID,143,VALID,0,
2010-12-02, 02:51:04,VALID,1005.46,VALID,0,VALID,103.718,VALID,0,VALID,24.5106,VALID,143,VALID,0,
2010-12-02, 02:52:04,VALID,1005.46,VALID,0,VALID,103.733,VALID,0,VALID,24.5125,VALID,143,VALID,0,
2010-12-02, 02:53:04,VALID,1005.47,VALID,0,VALID,103.726,VALID,0.105969,VALID,24.493,VALID,143,VALID,0.33125,
2010-12-02, 02:54:04,VALID,1005.45,VALID,0,VALID,103.718,VALID,0,VALID,24.493,VALID,143,VALID,0.338281,
2010-12-02, 02:55:04,VALID,1005.43,VALID,0,VALID,103.703,VALID,0,VALID,24.4735,VALID,143,VALID,0.780469,
2010-12-02, 02:56:04,VALID,1005.45,VALID,0,VALID,103.726,VALID,0,VALID,24.4735,VALID,143,VALID,0.476563,
2010-12-02, 02:57:04,VALID,1005.42,VALID,0,VALID,103.733,VALID,0,VALID,24.4735,VALID,122,VALID,0.652344,
2010-12-02, 02:58:04,VALID,1005.41,VALID,0,VALID,103.741,VALID,0,VALID,24.493,VALID,120,VALID,0.886328,
2010-12-02, 02:59:04,VALID,1005.39,VALID,0,VALID,103.748,VALID,0,VALID,24.454,VALID,97,VALID,0.867188,
2010-12-02, 03:00:04,VALID,1005.38,VALID,0,VALID,103.748,VALID,0,VALID,24.454,VALID,96,VALID,0.913672,
2010-12-02, 03:01:04,VALID,1005.4,VALID,0,VALID,103.756,VALID,0,VALID,24.4345,VALID,112,VALID,0.752344,
2010-12-02, 03:02:04,VALID,1005.38,VALID,0,VALID,103.733,VALID,0,VALID,24.4345,VALID,127,VALID,0.967188,
2010-12-02, 03:03:04,VALID,1005.39,VALID,0,VALID,103.756,VALID,0,VALID,24.4345,VALID,122,VALID,0.969141,
2010-12-02, 03:04:04,VALID,1005.38,VALID,0,VALID,103.756,VALID,0,VALID,24.3956,VALID,140,VALID,0.995703,
2010-12-02, 03:05:04,VALID,1005.39,VALID,0,VALID,103.733,VALID,0,VALID,24.3956,VALID,140,VALID,0.628906,
2010-12-02, 03:06:04,VALID,1005.4,VALID,0,VALID,103.756,VALID,0,VALID,24.3761,VALID,128,VALID,0.75625,
2010-12-02, 03:07:04,VALID,1005.4,VALID,0,VALID,103.741,VALID,0,VALID,24.3566,VALID,108,VALID,0.484766,
2010-12-02, 03:08:04,VALID,1005.4,VALID,0,VALID,103.741,VALID,0,VALID,24.3566,VALID,127,VALID,0.941797,
2010-12-02, 03:09:04,VALID,1005.43,VALID,0,VALID,103.764,VALID,0,VALID,24.3371,VALID,127,VALID,0.459375,
2010-12-02, 03:10:04,VALID,1005.44,VALID,0,VALID,103.771,VALID,0,VALID,24.3176,VALID,127,VALID,0.43125,
2010-12-02, 03:11:04,VALID,1005.44,VALID,0,VALID,103.771,VALID,0,VALID,24.3176,VALID,114,VALID,0.721484,
2010-12-02, 03:12:04,VALID,1005.41,VALID,0,VALID,103.787,VALID,0,VALID,24.3176,VALID,114,VALID,0.500781,
2010-12-02, 03:13:04,VALID,1005.44,VALID,0,VALID,103.779,VALID,0,VALID,24.2981,VALID,114,VALID,0.494922,
2010-12-02, 03:14:04,VALID,1005.4,VALID,0,VALID,103.787,VALID,0,VALID,24.3,VALID,114,VALID,0.632031,
2010-12-02, 03:15:04,VALID,1005.41,VALID,0,VALID,103.779,VALID,0,VALID,24.2786,VALID,114,VALID,0.562891,
2010-12-02, 03:16:04,VALID,1005.41,VALID,0,VALID,103.794,VALID,0,VALID,24.2981,VALID,114,VALID,0.244531,
2010-12-02, 03:17:04,VALID,1005.41,VALID,0,VALID,103.802,VALID,0,VALID,24.3,VALID,147,VALID,0.964844,
2010-12-02, 03:18:04,VALID,1005.41,VALID,0,VALID,103.809,VALID,0.105969,VALID,24.2786,VALID,143,VALID,1.06719,
2010-12-02, 03:19:04,VALID,1005.4,VALID,0,VALID,103.809,VALID,0,VALID,24.2591,VALID,130,VALID,0.774219,
2010-12-02, 03:20:04,VALID,1005.4,VALID,0,VALID,103.802,VALID,0,VALID,24.2591,VALID,137,VALID,0.407813,
2010-12-02, 03:21:04,VALID,1005.4,VALID,0,VALID,103.817,VALID,0,VALID,24.2396,VALID,137,VALID,0.435937,
2010-12-02, 03:22:04,VALID,1005.41,VALID,0,VALID,103.809,VALID,0,VALID,24.2396,VALID,137,VALID,0.0539063,
2010-12-02, 03:23:04,VALID,1005.41,VALID,0,VALID,103.817,VALID,0,VALID,24.2202,VALID,137,VALID,0.488672,
2010-12-02, 03:24:04,VALID,1005.41,VALID,0,VALID,103.817,VALID,0,VALID,24.2202,VALID,137,VALID,0.285547,
2010-12-02, 03:25:04,VALID,1005.41,VALID,0,VALID,103.794,VALID,0,VALID,24.2202,VALID,137,VALID,0.114063,
2010-12-02, 03:26:04,VALID,1005.41,VALID,0,VALID,103.817,VALID,0,VALID,24.2202,VALID,137,VALID,0.247656,
2010-12-02, 03:27:04,VALID,1005.4,VALID,0,VALID,103.802,VALID,0,VALID,24.1988,VALID,137,VALID,0,
2010-12-02, 03:28:04,VALID,1005.4,VALID,0,VALID,103.817,VALID,0,VALID,24.2202,VALID,137,VALID,0,
2010-12-02, 03:29:04,VALID,1005.41,VALID,0,VALID,103.809,VALID,0,VALID,24.2007,VALID,137,VALID,0,
2010-12-02, 03:30:04,VALID,1005.39,VALID,0,VALID,103.817,VALID,0,VALID,24.2007,VALID,137,VALID,0,
2010-12-02, 03:31:04,VALID,1005.38,VALID,0,VALID,103.817,VALID,0,VALID,24.2202,VALID,137,VALID,0,
2010-12-02, 03:32:04,VALID,1005.4,VALID,0,VALID,103.794,VALID,0,VALID,24.2007,VALID,137,VALID,0,
2010-12-02, 03:33:04,VALID,1005.39,VALID,0,VALID,103.802,VALID,0,VALID,24.2007,VALID,137,VALID,0,
2010-12-02, 03:34:04,VALID,1005.39,VALID,0,VALID,103.809,VALID,0,VALID,24.2202,VALID,137,VALID,0,
2010-12-02, 03:35:04,VALID,1005.41,VALID,0,VALID,103.802,VALID,0,VALID,24.2007,VALID,137,VALID,0,
2010-12-02, 03:36:04,VALID,1005.41,VALID,0,VALID,103.802,VALID,0,VALID,24.2202,VALID,137,VALID,0,
2010-12-02, 03:37:04,VALID,1005.4,VALID,0,VALID,103.809,VALID,0,VALID,24.2007,VALID,137,VALID,0,
2010-12-02, 03:38:04,VALID,1005.39,VALID,0,VALID,103.809,VALID,0,VALID,24.1793,VALID,137,VALID,0,
2010-12-02, 03:39:04,VALID,1005.38,VALID,0,VALID,103.817,VALID,0,VALID,24.1793,VALID,137,VALID,0,
2010-12-02, 03:40:04,VALID,1005.37,VALID,0,VALID,103.794,VALID,0,VALID,24.2007,VALID,137,VALID,0,
2010-12-02, 03:41:04,VALID,1005.36,VALID,0,VALID,103.779,VALID,0,VALID,24.1812,VALID,137,VALID,0,
2010-12-02, 03:42:04,VALID,1005.37,VALID,0,VALID,103.802,VALID,0,VALID,24.2007,VALID,137,VALID,0,
2010-12-02, 03:43:04,VALID,1005.38,VALID,0,VALID,103.779,VALID,0,VALID,24.1793,VALID,137,VALID,0,
2010-12-02, 03:44:04,VALID,1005.37,VALID,0,VALID,103.794,VALID,0,VALID,24.2007,VALID,137,VALID,0,
2010-12-02, 03:45:04,VALID,1005.35,VALID,0,VALID,103.802,VALID,0,VALID,24.1812,VALID,137,VALID,0,
2010-12-02, 03:46:04,VALID,1005.37,VALID,0,VALID,103.817,VALID,0,VALID,24.183,VALID,137,VALID,0,
2010-12-02, 03:47:04,VALID,1005.35,VALID,0,VALID,103.817,VALID,0,VALID,24.1617,VALID,140,VALID,0.660156,
2010-12-02, 03:48:04,VALID,1005.37,VALID,0,VALID,103.802,VALID,0,VALID,24.1617,VALID,136,VALID,0.544531,
2010-12-02, 03:49:04,VALID,1005.37,VALID,0,VALID,103.794,VALID,0,VALID,24.183,VALID,136,VALID,0.611328,